EN

Hourly Weather Lafia

Today, 28 July, Wednesday

Time Temperature Precipitation Wind Pressure Humidity
00:00 +24°C° 0 mm 1 mps 743 mmHg 86%
01:00 +24°C° 0 mm 1 mps 743 mmHg 87%
02:00 +23°C° 0 mm 1 mps 743 mmHg 87%
03:00 +23°C° 0 mm 1 mps 743 mmHg 87%
04:00 +23°C° 0 mm 1 mps 743 mmHg 87%
05:00 +23°C° 0 mm 1 mps 743 mmHg 87%
06:00 +23°C° 0 mm 1 mps 743 mmHg 87%
07:00 +24°C° 0 mm 1 mps 743 mmHg 86%
08:00 +25°C° 0 mm 1 mps 744 mmHg 81%
09:00 +27°C° 0 mm 1 mps 744 mmHg 75%
10:00 +28°C° 0 mm 2 mps 744 mmHg 69%
11:00 +29°C° 0.1 mm 2 mps 744 mmHg 67%
12:00 +29°C° 0.1 mm 2 mps 744 mmHg 64%
13:00 +30°C° 0.1 mm 2 mps 743 mmHg 61%
14:00 +30°C° 0 mm 2 mps 742 mmHg 60%
15:00 +30°C° 0 mm 2 mps 742 mmHg 60%
16:00 +31°C° 0 mm 2 mps 741 mmHg 59%
17:00 +30°C° 0 mm 2 mps 741 mmHg 64%
18:00 +28°C° 0 mm 1 mps 741 mmHg 69%
19:00 +27°C° 0 mm 1 mps 741 mmHg 74%
20:00 +27°C° 0 mm 1 mps 742 mmHg 75%
21:00 +26°C° 0 mm 1 mps 742 mmHg 76%
22:00 +26°C° 0 mm 1 mps 743 mmHg 77%
23:00 +26°C° 0 mm 1 mps 743 mmHg 79%

Tomorrow, 29 July, Thursday

Time Temperature Precipitation Wind Pressure Humidity
00:00 +25°C° 0 mm 1 mps 743 mmHg 81%
01:00 +25°C° 0 mm 1 mps 743 mmHg 84%
02:00 +25°C° 0.2 mm 1 mps 742 mmHg 85%
03:00 +25°C° 0.2 mm 1 mps 742 mmHg 87%
04:00 +24°C° 0.2 mm 1 mps 742 mmHg 89%
05:00 +25°C° 0.1 mm 1 mps 742 mmHg 90%
06:00 +25°C° 0.1 mm 1 mps 743 mmHg 90%
07:00 +25°C° 0.1 mm 1 mps 743 mmHg 90%
08:00 +25°C° 0.2 mm 2 mps 743 mmHg 88%
09:00 +26°C° 0.2 mm 2 mps 744 mmHg 85%
10:00 +27°C° 0.2 mm 2 mps 744 mmHg 82%
11:00 +28°C° 0.5 mm 2 mps 744 mmHg 77%
12:00 +29°C° 0.5 mm 3 mps 743 mmHg 71%
13:00 +30°C° 0.5 mm 3 mps 743 mmHg 66%
14:00 +30°C° 0.5 mm 3 mps 742 mmHg 66%
15:00 +30°C° 0.5 mm 2 mps 741 mmHg 67%
16:00 +30°C° 0.5 mm 2 mps 741 mmHg 67%
17:00 +29°C° 1 mm 2 mps 741 mmHg 74%
18:00 +27°C° 1 mm 2 mps 741 mmHg 81%
19:00 +26°C° 1 mm 1 mps 741 mmHg 88%
20:00 +26°C° 0 mm 1 mps 742 mmHg 90%
21:00 +25°C° 0 mm 1 mps 743 mmHg 91%
22:00 +25°C° 0 mm 1 mps 743 mmHg 92%
23:00 +25°C° 0.1 mm 1 mps 743 mmHg 93%

Day after tomorrow, 30 July, Friday

Time Temperature Precipitation Wind Pressure Humidity
00:00 +25°C° 0.1 mm 1 mps 743 mmHg 94%
01:00 +24°C° 0.1 mm 1 mps 743 mmHg 95%
02:00 +24°C° 0.6 mm 1 mps 743 mmHg 95%
03:00 +24°C° 0.6 mm 1 mps 743 mmHg 95%
04:00 +24°C° 0.6 mm 1 mps 742 mmHg 96%
05:00 +24°C° 0.1 mm 1 mps 743 mmHg 95%
06:00 +24°C° 0.1 mm 1 mps 743 mmHg 95%
07:00 +25°C° 0.1 mm 1 mps 744 mmHg 94%
08:00 +25°C° 0.2 mm 1 mps 744 mmHg 91%
09:00 +26°C° 0.2 mm 2 mps 744 mmHg 88%
10:00 +26°C° 0.2 mm 2 mps 745 mmHg 85%
11:00 +28°C° 0.1 mm 2 mps 744 mmHg 78%
12:00 +29°C° 0.1 mm 3 mps 743 mmHg 72%
13:00 +30°C° 0.1 mm 3 mps 743 mmHg 65%
14:00 +30°C° 0.2 mm 3 mps 742 mmHg 65%
15:00 +30°C° 0.2 mm 3 mps 742 mmHg 65%
16:00 +31°C° 0.2 mm 3 mps 741 mmHg 65%
17:00 +29°C° 0.3 mm 2 mps 741 mmHg 69%
18:00 +28°C° 0.3 mm 2 mps 742 mmHg 74%
19:00 +27°C° 0.3 mm 1 mps 742 mmHg 78%
20:00 +27°C° 0.1 mm 1 mps 743 mmHg 80%
21:00 +26°C° 0.1 mm 1 mps 743 mmHg 82%
22:00 +26°C° 0.1 mm 1 mps 744 mmHg 84%
23:00 +25°C° 1.1 mm 1 mps 744 mmHg 87%

31 July, Saturday

Time Temperature Precipitation Wind Pressure Humidity
00:00 +25°C° 1.1 mm 1 mps 743 mmHg 91%
01:00 +25°C° 1.1 mm 1 mps 743 mmHg 94%
02:00 +24°C° 1.6 mm 1 mps 743 mmHg 95%
03:00 +24°C° 1.6 mm 2 mps 743 mmHg 95%
04:00 +24°C° 1.6 mm 2 mps 742 mmHg 95%
05:00 +24°C° 1.4 mm 2 mps 743 mmHg 96%
06:00 +24°C° 1.4 mm 2 mps 743 mmHg 96%
07:00 +24°C° 1.4 mm 1 mps 744 mmHg 97%
08:00 +24°C° 5 mm 2 mps 744 mmHg 97%
09:00 +24°C° 5 mm 2 mps 745 mmHg 97%
10:00 +24°C° 5 mm 2 mps 745 mmHg 97%
11:00 +24°C° 1.6 mm 2 mps 745 mmHg 97%
12:00 +24°C° 1.6 mm 2 mps 745 mmHg 96%
13:00 +24°C° 1.6 mm 2 mps 744 mmHg 95%
14:00 +24°C° 1.3 mm 1 mps 744 mmHg 95%
15:00 +24°C° 1.3 mm 1 mps 744 mmHg 96%
16:00 +24°C° 1.3 mm 1 mps 744 mmHg 96%
17:00 +24°C° 0.3 mm 1 mps 744 mmHg 96%
18:00 +24°C° 0.3 mm 1 mps 744 mmHg 97%
19:00 +21°C° 0.3 mm 0 mps 745 mmHg 97%
20:00 +23°C° 0 mm 1 mps 745 mmHg 97%
21:00 +23°C° 0 mm 1 mps 745 mmHg 97%
22:00 +23°C° 0 mm 1 mps 745 mmHg 97%
23:00 +23°C° 0 mm 1 mps 745 mmHg 97%

1 August, Sunday

Time Temperature Precipitation Wind Pressure Humidity
00:00 +23°C° 0 mm 1 mps 744 mmHg 97%
01:00 +23°C° 0 mm 1 mps 744 mmHg 98%
02:00 +23°C° 0 mm 1 mps 744 mmHg 97%
03:00 +23°C° 0 mm 1 mps 744 mmHg 97%
04:00 +23°C° 0 mm 1 mps 744 mmHg 97%
05:00 +23°C° 0 mm 1 mps 744 mmHg 97%
06:00 +23°C° 0 mm 1 mps 744 mmHg 97%
07:00 +21°C° 0 mm 0 mps 745 mmHg 96%
08:00 +24°C° 0 mm 1 mps 745 mmHg 96%
09:00 +24°C° 0 mm 1 mps 746 mmHg 95%
10:00 +24°C° 0 mm 1 mps 746 mmHg 94%
11:00 +25°C° 0.1 mm 1 mps 745 mmHg 90%
12:00 +26°C° 0.1 mm 1 mps 745 mmHg 85%
13:00 +27°C° 0.1 mm 2 mps 745 mmHg 81%
14:00 +28°C° 0.1 mm 2 mps 744 mmHg 77%
15:00 +29°C° 0.1 mm 2 mps 744 mmHg 74%
16:00 +30°C° 0.1 mm 2 mps 743 mmHg 70%
17:00 +28°C° 0.5 mm 2 mps 743 mmHg 76%
18:00 +27°C° 0.5 mm 1 mps 744 mmHg 83%
19:00 +26°C° 0.5 mm 1 mps 744 mmHg 89%
20:00 +25°C° 0.1 mm 1 mps 744 mmHg 90%
21:00 +25°C° 0.1 mm 1 mps 745 mmHg 91%
22:00 +25°C° 0.1 mm 1 mps 745 mmHg 92%
23:00 +24°C° 0 mm 1 mps 745 mmHg 93%

2 August, Monday

Time Temperature Precipitation Wind Pressure Humidity
00:00 +24°C° 0 mm 1 mps 745 mmHg 94%
01:00 +24°C° 0 mm 1 mps 745 mmHg 95%
02:00 +24°C° 0 mm 1 mps 744 mmHg 95%
03:00 +24°C° 0 mm 1 mps 744 mmHg 96%
04:00 +24°C° 0 mm 1 mps 744 mmHg 96%
05:00 +24°C° 0 mm 1 mps 744 mmHg 96%
06:00 +24°C° 0 mm 1 mps 745 mmHg 95%
07:00 +24°C° 0 mm 1 mps 745 mmHg 95%
08:00 +26°C° 0 mm 1 mps 745 mmHg 89%
09:00 +27°C° 0 mm 2 mps 745 mmHg 83%
10:00 +29°C° 0 mm 2 mps 746 mmHg 77%
11:00 +30°C° 0.2 mm 2 mps 745 mmHg 72%
12:00 +30°C° 0.2 mm 2 mps 744 mmHg 68%
13:00 +31°C° 0.2 mm 2 mps 744 mmHg 64%
14:00 +31°C° 0.6 mm 3 mps 743 mmHg 66%
15:00 +31°C° 0.6 mm 3 mps 743 mmHg 69%
16:00 +30°C° 0.6 mm 3 mps 742 mmHg 72%
17:00 +29°C° 0.9 mm 2 mps 743 mmHg 77%
18:00 +28°C° 0.9 mm 2 mps 743 mmHg 83%
19:00 +26°C° 0.9 mm 2 mps 743 mmHg 88%
20:00 +26°C° 0 mm 1 mps 744 mmHg 89%
21:00 +26°C° 0 mm 1 mps 744 mmHg 89%
22:00 +25°C° 0 mm 1 mps 744 mmHg 90%
23:00 +25°C° 0 mm 1 mps 744 mmHg 91%
Show more